This demonstration page uses our WeatherBlox Daily Observations layout. Learn more.

Left ArrowRight Arrow

40.92501, -98.34201

Hourly Observations for August 10, 2020

Temp ( °F °C ) Dew Point ( °F °C ) Humidity (%) Winds ( mph kmh ) Pressure ( in mb ) Visibility ( mi km ) Precip ( " mm )
12:53 am 00:53 Clear 78 25.6 72 22.2 82 82 ESE 7 11 29.83 1010 10 16 0.00 0.00
1:53 am 01:53 Clear 77 25 70 21.1 79 79 S 9 15 29.82 1010 10 16 0.00 0.00
2:53 am 02:53 Clear 77 25 68 20 74 74 SW 8 13 29.83 1010 10 16 0.00 0.00
3:53 am 03:53 Clear 71 21.7 67 19.4 87 87 Calm 29.84 1010 10 16 0.00 0.00
4:53 am 04:53 Clear 71 21.7 67 19.4 87 87 NW 5 7 29.84 1010 10 16 0.00 0.00
5:53 am 05:53 Clear 68 20 65 18.3 90 90 W 6 9 29.85 1011 7 11 0.00 0.00
6:53 am 06:53 Partly Cloudy with Mist and Fog 71 21.7 68 20 90 90 NNW 15 24 29.88 1012 4 6 0.00 0.00
7:04 am 07:04 Mostly Cloudy with Mist and Fog 72 22.2 70 21.1 94 94 N 13 20 29.87 1011 2 3 0.00 0.00
7:11 am 07:11 Mostly Cloudy with Mist and Fog 72 22.2 70 21.1 94 94 N 14 22 29.87 1011 1 1 0.00 0.00
7:27 am 07:27 Cloudy with Mist and Fog 72 22.2 69 20.6 91 91 N 14 22 29.89 1012 3 4 0.00 0.00
7:32 am 07:32 Cloudy with Mist and Fog 72 22.2 68 20 87 87 NNE 17 28 29.90 1012 5 8 0.00 0.00
7:53 am 07:53 Cloudy with Mist and Fog 70 21.1 67 19.4 90 90 N 22 35 29.97 1015 5 8 0.00 0.00
8:48 am 08:48 Cloudy 70 21 63 17 78 78 NE 20 31 29.97 1015 10 16 0.00 0.00
8:53 am 08:53 Cloudy 69 20.6 62 16.7 78 78 NNE 21 33 30.01 1016 10 16 0.00 0.00
9:03 am 09:03 Cloudy 69 20.6 61 16.1 76 76 NE 17 28 29.99 1015 10 16 0.00 0.00
9:53 am 09:53 Cloudy 72 22.2 59 15 64 64 NNE 21 33 30.01 1016 10 16 0.00 0.00
10:26 am 10:26 Partly Cloudy 74 23.3 59 15 60 60 NNE 18 30 29.98 1015 10 16 0.00 0.00
10:53 am 10:53 Sunny 74 23.3 57 13.9 56 56 NE 21 33 30.02 1017 10 16 0.00 0.00
11:53 am 11:53 Sunny 75 23.9 58 14.4 55 55 ENE 15 24 30.01 1016 10 16 0.00 0.00
12:53 pm 12:53 Sunny 78 25.6 59 15 52 52 E 9 15 29.98 1015 10 16 0.00 0.00
1:53 pm 13:53 Sunny 80 26.7 59 15 49 49 ENE 12 19 29.99 1016 10 16 0.00 0.00
2:53 pm 14:53 Sunny 82 27.8 60 15.6 47 47 NE 8 13 29.98 1015 10 16 0.00 0.00
3:53 pm 15:53 Sunny 82 27.8 61 16.1 49 49 E 7 11 29.98 1015 10 16 0.00 0.00
4:53 pm 16:53 Sunny 83 28.3 62 16.7 49 49 ENE 7 11 29.96 1014 10 16 0.00 0.00
5:53 pm 17:53 Sunny 82 27.8 61 16.1 49 49 NNE 14 22 29.95 1014 10 16 0.00 0.00
6:53 pm 18:53 Sunny 80 26.7 62 16.7 54 54 NE 12 19 29.94 1014 10 16 0.00 0.00
7:53 pm 19:53 Sunny 78 25.6 61 16.1 56 56 ENE 9 15 29.95 1014 10 16 0.00 0.00
8:53 pm 20:53 Clear 72 22.2 63 17.2 73 73 NE 8 13 29.94 1014 10 16 0.00 0.00
9:53 pm 21:53 Clear 70 21.1 62 16.7 76 76 NE 6 9 29.99 1016 10 16 0.00 0.00
10:53 pm 22:53 Clear 68 20 62 16.7 81 81 NE 6 9 29.99 1016 10 16 0.00 0.00
11:53 pm 23:53 Clear 66 18.9 62 16.7 87 87 NNE 5 7 29.99 1016 10 16 0.00 0.00

Powered by AerisWeather